START_TIME,STEP,MOV.,M6,t_acc.,M7,t_acc.,M19,t_acc.,H36,t_acc.
1980-11-16 03:00:15.700 ,4,0,0.,12.0,0.,12.0,0.,12.0,0.,12.0
1980-11-16 03:00:27.700 ,4,0,0.,12.0,0.,12.0,0.,12.0,0.,12.0
1980-11-16 03:00:39.700 ,5,1,0.,12.0,0.,12.0,0.,12.0,0.,12.0
1980-11-16 03:00:51.700 ,5,1,0.,12.0,0.,12.0,0.,12.0,0.,12.0
1980-11-16 03:01:03.700 ,5,0,0.,12.0,0.,12.0,0.,12.0,0.,12.0
1980-11-16 03:01:15.700 ,5,0,0.,12.0,0.,12.0,0.,12.0,0.,12.0
1980-11-16 03:01:27.700 ,6,1,0.,12.0,0.,12.0,0.,12.0,0.,12.0
1980-11-16 03:01:39.700 ,6,1,0.,12.0,0.,12.0,0.,12.0,0.,12.0
1980-11-16 03:01:51.700 ,6,0,0.,12.0,0.,12.0,0.,12.0,0.,12.0
1980-11-16 03:02:03.700 ,6,0,0.,12.0,0.,12.0,0.,12.0,0.,12.0
1980-11-16 03:02:15.700 ,7,1,0.,12.0,0.,12.0,0.,12.0,0.,12.0
1980-11-16 03:02:27.700 ,7,1,0.,12.0,0.,12.0,0.,12.0,0.,12.0
1980-11-16 03:02:39.700 ,7,0,0.,12.0,0.,12.0,0.,12.0,0.,12.0
1980-11-16 03:02:51.700 ,7,0,0.,12.0,0.,12.0,0.,12.0,0.,12.0
1980-11-16 03:03:03.700 ,7,1,0.,12.0,0.,12.0,0.,12.0,0.,12.0
1980-11-16 03:03:15.700 ,7,1,0.,12.0,0.,12.0,0.,12.0,0.,12.0
1980-11-16 03:03:27.700 ,7,0,0.,12.0,0.,12.0,0.,12.0,0.,12.0
1980-11-16 03:03:39.700 ,7,0,0.,12.0,0.,12.0,0.,12.0,0.,12.0
1980-11-16 03:03:51.700 ,6,1,0.,12.0,0.,12.0,0.,12.0,0.,12.0
1980-11-16 03:04:03.700 ,6,1,0.,12.0,0.,12.0,0.,12.0,0.,12.0
1980-11-16 03:04:15.700 ,6,0,0.,12.0,0.,12.0,0.,12.0,0.,12.0
1980-11-16 03:04:27.700 ,6,0,0.,12.0,0.,12.0,0.,12.0,0.,12.0
1980-11-16 03:04:39.700 ,5,1,0.,12.0,0.,12.0,0.,12.0,0.,12.0
1980-11-16 03:04:51.700 ,5,1,0.,12.0,0.,12.0,0.,12.0,0.,12.0
1980-11-16 03:05:03.700 ,5,0,0.,12.0,0.,12.0,0.,12.0,0.,12.0
1980-11-16 03:05:15.700 ,5,0,0.,12.0,0.,12.0,0.,12.0,0.,12.0
1980-11-16 03:05:27.700 ,4,1,0.,12.0,0.,12.0,0.,12.0,0.,12.0
1980-11-16 03:05:39.700 ,4,1,0.,12.0,0.,12.0,0.,12.0,0.,12.0
1980-11-16 03:05:51.700 ,4,0,0.,12.0,0.,12.0,0.,12.0,0.,12.0
1980-11-16 03:06:03.700 ,4,0,0.,12.0,0.,12.0,0.,12.0,0.,12.0
1980-11-16 03:06:15.700 ,3,1,0.,12.0,0.,12.0,0.,12.0,0.,12.0
1980-11-16 03:06:27.700 ,3,1,0.,12.0,0.,12.0,0.,12.0,0.,12.0
1980-11-16 03:06:39.700 ,3,0,0.,12.0,0.,12.0,0.,12.0,0.,12.0
1980-11-16 03:06:51.700 ,3,0,1.,12.0,0.,12.0,0.,12.0,0.,12.0
1980-11-16 03:07:03.700 ,2,1,0.,12.0,0.,12.0,0.,12.0,0.,12.0
1980-11-16 03:07:15.700 ,2,1,0.,12.0,0.,12.0,0.,12.0,0.,12.0
1980-11-16 03:07:27.700 ,2,0,0.,12.0,0.,12.0,0.,12.0,0.,12.0
1980-11-16 03:07:39.700 ,2,0,0.,12.0,0.,12.0,0.,12.0,0.,12.0
1980-11-16 03:07:51.700 ,1,1,0.,12.0,0.,12.0,0.,12.0,0.,12.0
1980-11-16 03:08:03.700 ,1,1,0.,12.0,0.,12.0,0.,12.0,0.,12.0
1980-11-16 03:08:15.700 ,1,0,0.,12.0,0.,12.0,0.,12.0,0.,12.0
1980-11-16 03:08:27.700 ,1,0,0.,12.0,0.,12.0,0.,12.0,0.,12.0
1980-11-16 03:08:39.700 ,0,1,0.,12.0,0.,12.0,0.,12.0,0.,12.0
1980-11-16 03:08:51.700 ,0,1,0.,12.0,0.,12.0,0.,12.0,0.,12.0
1980-11-16 03:09:03.700 ,0,0,0.,12.0,0.,12.0,0.,12.0,0.,12.0
1980-11-16 03:09:15.700 ,0,0,0.,12.0,0.,12.0,0.,12.0,0.,12.0
1980-11-16 03:09:27.700 ,0,1,0.,12.0,0.,12.0,0.,12.0,0.,12.0
1980-11-16 03:09:39.700 ,0,1,0.,12.0,0.,12.0,0.,12.0,0.,12.0
1980-11-16 03:09:51.700 ,0,0,0.,12.0,0.,12.0,0.,12.0,0.,12.0
1980-11-16 03:10:03.700 ,0,0,0.,12.0,0.,12.0,0.,12.0,0.,12.0
1980-11-16 03:10:15.700 ,1,1,0.,12.0,0.,12.0,0.,12.0,0.,12.0
1980-11-16 03:10:27.700 ,1,1,0.,12.0,0.,12.0,0.,12.0,0.,12.0
1980-11-16 03:10:39.700 ,1,0,0.,12.0,0.,12.0,0.,12.0,0.,12.0
1980-11-16 03:10:51.700 ,1,0,0.,12.0,0.,12.0,0.,12.0,0.,12.0
1980-11-16 03:11:03.700 ,2,1,0.,12.0,0.,12.0,0.,12.0,0.,12.0
1980-11-16 03:11:15.700 ,2,1,0.,12.0,0.,12.0,0.,12.0,0.,12.0
1980-11-16 03:11:27.700 ,2,0,0.,12.0,0.,12.0,0.,12.0,0.,12.0
1980-11-16 03:11:39.700 ,2,0,0.,12.0,0.,12.0,0.,12.0,0.,12.0
1980-11-16 03:11:51.700 ,3,1,0.,12.0,0.,12.0,0.,12.0,0.,12.0
1980-11-16 03:12:03.700 ,3,1,0.,12.0,0.,12.0,0.,12.0,0.,12.0
1980-11-16 03:12:15.700 ,3,0,0.,12.0,0.,12.0,0.,12.0,0.,12.0
1980-11-16 03:12:27.700 ,3,0,0.,12.0,0.,12.0,0.,12.0,0.,12.0
1980-11-16 03:12:39.700 ,4,1,0.,12.0,0.,12.0,0.,12.0,0.,12.0
1980-11-16 03:12:51.700 ,4,1,0.,12.0,0.,12.0,0.,12.0,0.,12.0
1980-11-16 03:13:03.700 ,4,0,0.,12.0,0.,12.0,0.,12.0,0.,12.0
1980-11-16 03:13:15.700 ,4,0,0.,12.0,0.,12.0,0.,12.0,0.,12.0
1980-11-16 03:13:27.700 ,5,1,0.,12.0,0.,12.0,0.,12.0,0.,12.0
1980-11-16 03:13:39.700 ,5,1,0.,12.0,0.,12.0,0.,12.0,0.,12.0
1980-11-16 03:13:51.700 ,5,0,0.,12.0,0.,12.0,0.,12.0,0.,12.0
1980-11-16 03:14:03.700 ,5,0,0.,12.0,0.,12.0,0.,12.0,0.,12.0
1980-11-16 03:14:15.700 ,6,1,0.,12.0,0.,12.0,0.,12.0,0.,12.0
1980-11-16 03:14:27.700 ,6,1,0.,12.0,0.,12.0,0.,12.0,0.,12.0
1980-11-16 03:14:39.700 ,6,0,0.,12.0,0.,12.0,0.,12.0,0.,12.0
1980-11-16 03:14:51.700 ,6,0,0.,12.0,0.,12.0,0.,12.0,0.,12.0
1980-11-16 03:15:03.700 ,7,1,0.,12.0,0.,12.0,0.,12.0,0.,12.0
1980-11-16 03:15:15.700 ,7,1,0.,12.0,0.,12.0,0.,12.0,0.,12.0
1980-11-16 03:15:27.700 ,7,0,0.,12.0,0.,12.0,0.,12.0,0.,12.0
1980-11-16 03:15:39.700 ,7,0,0.,12.0,0.,12.0,0.,12.0,0.,12.0
1980-11-16 03:15:51.700 ,7,1,0.,12.0,0.,12.0,0.,12.0,0.,12.0
1980-11-16 03:16:03.700 ,7,1,0.,12.0,0.,12.0,0.,12.0,0.,12.0
1980-11-16 03:16:15.700 ,7,0,0.,12.0,0.,12.0,0.,12.0,0.,12.0
1980-11-16 03:16:27.700 ,7,0,0.,12.0,0.,12.0,0.,12.0,0.,12.0
1980-11-16 03:16:39.700 ,6,1,0.,12.0,0.,12.0,0.,12.0,0.,12.0
1980-11-16 03:16:51.700 ,6,1,0.,12.0,0.,12.0,0.,12.0,0.,12.0
1980-11-16 03:17:03.700 ,6,0,0.,12.0,0.,12.0,0.,12.0,0.,12.0
1980-11-16 03:17:15.700 ,6,0,0.,12.0,0.,12.0,0.,12.0,0.,12.0
1980-11-16 03:17:27.700 ,5,1,0.,12.0,0.,12.0,0.,12.0,0.,12.0
1980-11-16 03:17:39.700 ,5,1,0.,12.0,0.,12.0,0.,12.0,0.,12.0
1980-11-16 03:17:51.700 ,5,0,0.,12.0,0.,12.0,0.,12.0,0.,12.0
1980-11-16 03:18:03.700 ,5,0,0.,12.0,0.,12.0,0.,12.0,0.,12.0
1980-11-16 03:18:15.700 ,4,1,0.,12.0,0.,12.0,0.,12.0,0.,12.0
1980-11-16 03:18:27.700 ,4,1,0.,12.0,0.,12.0,0.,12.0,0.,12.0
1980-11-16 03:18:39.700 ,4,0,0.,12.0,0.,12.0,0.,12.0,0.,12.0
1980-11-16 03:18:51.700 ,4,0,0.,12.0,0.,12.0,0.,12.0,0.,12.0
1980-11-16 03:19:03.700 ,3,1,0.,12.0,0.,12.0,0.,12.0,0.,12.0
1980-11-16 03:19:15.700 ,3,1,0.,12.0,0.,12.0,0.,12.0,0.,12.0
1980-11-16 03:19:27.700 ,3,0,0.,12.0,0.,12.0,0.,12.0,0.,12.0
1980-11-16 03:19:39.700 ,3,0,0.,12.0,0.,12.0,0.,12.0,0.,12.0
1980-11-16 03:19:51.700 ,2,1,0.,12.0,0.,12.0,0.,12.0,0.,12.0
1980-11-16 03:20:03.700 ,2,1,0.,12.0,0.,12.0,0.,12.0,0.,12.0
1980-11-16 03:20:15.700 ,2,0,0.,12.0,0.,12.0,0.,12.0,0.,12.0
1980-11-16 03:20:27.700 ,2,0,0.,12.0,0.,12.0,0.,12.0,0.,12.0
1980-11-16 03:20:39.700 ,1,1,0.,12.0,0.,12.0,0.,12.0,0.,12.0
1980-11-16 03:20:51.700 ,1,1,0.,12.0,0.,12.0,0.,12.0,0.,12.0
1980-11-16 03:21:03.700 ,1,0,0.,12.0,0.,12.0,0.,12.0,0.,12.0
1980-11-16 03:21:15.700 ,1,0,0.,12.0,0.,12.0,0.,12.0,0.,12.0
1980-11-16 03:21:27.700 ,0,1,0.,12.0,0.,12.0,0.,12.0,0.,12.0
1980-11-16 03:21:39.700 ,0,1,0.,12.0,0.,12.0,0.,12.0,0.,12.0
1980-11-16 03:21:51.700 ,0,0,0.,12.0,0.,12.0,0.,12.0,0.,12.0
1980-11-16 03:22:03.700 ,0,0,0.,12.0,0.,12.0,0.,12.0,0.,12.0
1980-11-16 03:22:15.700 ,0,1,0.,12.0,0.,12.0,0.,12.0,0.,12.0
1980-11-16 03:22:27.700 ,0,1,0.,12.0,0.,12.0,0.,12.0,0.,12.0
1980-11-16 03:22:39.700 ,0,0,0.,12.0,0.,12.0,0.,12.0,0.,12.0
1980-11-16 03:22:51.700 ,0,0,0.,12.0,0.,12.0,0.,12.0,0.,12.0
1980-11-16 03:23:03.700 ,1,1,0.,12.0,0.,12.0,0.,12.0,0.,12.0
1980-11-16 03:23:15.700 ,1,1,0.,12.0,0.,12.0,0.,12.0,0.,12.0
1980-11-16 03:23:27.700 ,1,0,0.,12.0,0.,12.0,0.,12.0,0.,12.0
1980-11-16 03:23:39.700 ,1,0,0.,12.0,0.,12.0,0.,12.0,0.,12.0
1980-11-16 03:23:51.700 ,2,1,0.,12.0,0.,12.0,0.,12.0,0.,12.0
1980-11-16 03:24:03.700 ,2,1,0.,12.0,0.,12.0,0.,12.0,0.,12.0
1980-11-16 03:24:15.700 ,2,0,1.,12.0,0.,12.0,0.,12.0,0.,12.0
1980-11-16 03:24:27.700 ,2,0,0.,12.0,0.,12.0,0.,12.0,0.,12.0
1980-11-16 03:24:39.700 ,2,0,0.,12.0,0.,12.0,0.,12.0,0.,12.0
1980-11-16 03:24:51.700 ,2,0,,0,,0,,0,,0
1980-11-16 03:25:03.700 ,3,0,0.,12.0,0.,12.0,0.,12.0,0.,12.0
1980-11-16 03:25:15.700 ,3,0,0.,12.0,0.,12.0,0.,12.0,0.,12.0
1980-11-16 03:25:27.700 ,4,1,0.,12.0,0.,12.0,0.,12.0,0.,12.0
1980-11-16 03:25:39.700 ,4,1,0.,12.0,0.,12.0,0.,12.0,0.,12.0
1980-11-16 03:25:51.700 ,4,0,0.,12.0,0.,12.0,0.,12.0,0.,12.0
1980-11-16 03:26:03.700 ,4,0,0.,12.0,0.,12.0,0.,12.0,0.,12.0
1980-11-16 03:26:15.700 ,5,1,0.,12.0,0.,12.0,0.,12.0,0.,12.0
1980-11-16 03:26:27.700 ,5,1,0.,12.0,0.,12.0,0.,12.0,0.,12.0
1980-11-16 03:26:39.700 ,5,0,0.,12.0,0.,12.0,0.,12.0,0.,12.0
1980-11-16 03:26:51.700 ,5,0,0.,12.0,0.,12.0,0.,12.0,0.,12.0
1980-11-16 03:27:03.700 ,6,1,0.,12.0,0.,12.0,0.,12.0,0.,12.0
1980-11-16 03:27:15.700 ,6,1,0.,12.0,0.,12.0,0.,12.0,0.,12.0
1980-11-16 03:27:27.700 ,6,0,0.,12.0,0.,12.0,0.,12.0,0.,12.0
1980-11-16 03:27:39.700 ,6,0,0.,12.0,0.,12.0,0.,12.0,0.,12.0
1980-11-16 03:27:51.700 ,7,1,0.,12.0,0.,12.0,0.,12.0,0.,12.0
1980-11-16 03:28:03.700 ,7,1,0.,12.0,0.,12.0,0.,12.0,0.,12.0
1980-11-16 03:28:15.700 ,7,0,0.,12.0,0.,12.0,0.,12.0,0.,12.0
1980-11-16 03:28:27.700 ,7,0,0.,12.0,0.,12.0,0.,12.0,0.,12.0
1980-11-16 03:28:39.700 ,7,1,0.,12.0,0.,12.0,0.,12.0,0.,12.0
1980-11-16 03:28:51.700 ,7,1,0.,12.0,0.,12.0,0.,12.0,0.,12.0
1980-11-16 03:29:03.700 ,7,0,0.,12.0,0.,12.0,0.,12.0,0.,12.0
1980-11-16 03:29:15.700 ,7,0,0.,12.0,0.,12.0,0.,12.0,0.,12.0
1980-11-16 03:29:27.700 ,6,1,0.,12.0,0.,12.0,0.,12.0,0.,12.0
1980-11-16 03:29:39.700 ,6,1,0.,12.0,0.,12.0,0.,12.0,0.,12.0
1980-11-16 03:29:51.700 ,6,0,0.,12.0,0.,12.0,0.,12.0,0.,12.0
1980-11-16 03:30:03.700 ,6,0,0.,12.0,0.,12.0,0.,12.0,0.,12.0
1980-11-16 03:30:15.700 ,5,1,0.,12.0,0.,12.0,0.,12.0,0.,12.0
1980-11-16 03:30:27.700 ,5,1,0.,12.0,0.,12.0,0.,12.0,0.,12.0
1980-11-16 03:30:39.700 ,5,0,0.,12.0,0.,12.0,0.,12.0,0.,12.0
1980-11-16 03:30:51.700 ,5,0,0.,12.0,0.,12.0,0.,12.0,0.,12.0
1980-11-16 03:31:03.700 ,4,1,0.,12.0,0.,12.0,0.,12.0,0.,12.0
1980-11-16 03:31:15.700 ,4,1,0.,12.0,0.,12.0,0.,12.0,0.,12.0
1980-11-16 03:31:27.700 ,4,0,0.,12.0,0.,12.0,0.,12.0,0.,12.0
1980-11-16 03:31:39.700 ,4,0,0.,12.0,0.,12.0,0.,12.0,0.,12.0
1980-11-16 03:31:51.700 ,3,1,0.,12.0,0.,12.0,0.,12.0,0.,12.0
1980-11-16 03:32:03.700 ,3,1,0.,12.0,0.,12.0,0.,12.0,0.,12.0
1980-11-16 03:32:15.700 ,3,0,0.,12.0,0.,12.0,0.,12.0,0.,12.0
1980-11-16 03:32:27.700 ,3,0,0.,12.0,0.,12.0,0.,12.0,0.,12.0
1980-11-16 03:32:39.700 ,2,1,0.,12.0,0.,12.0,0.,12.0,0.,12.0
1980-11-16 03:32:51.700 ,2,1,0.,12.0,0.,12.0,0.,12.0,0.,12.0
1980-11-16 03:33:03.700 ,2,0,0.,12.0,0.,12.0,0.,12.0,0.,12.0
1980-11-16 03:33:15.700 ,2,0,0.,12.0,0.,12.0,0.,12.0,0.,12.0
1980-11-16 03:33:27.700 ,1,1,0.,12.0,0.,12.0,0.,12.0,0.,12.0
1980-11-16 03:33:39.700 ,1,1,0.,12.0,0.,12.0,0.,12.0,0.,12.0
1980-11-16 03:33:51.700 ,1,0,0.,12.0,0.,12.0,0.,12.0,0.,12.0
1980-11-16 03:34:03.700 ,1,0,0.,12.0,0.,12.0,0.,12.0,0.,12.0
1980-11-16 03:34:15.700 ,0,1,0.,12.0,0.,12.0,0.,12.0,0.,12.0
1980-11-16 03:34:27.700 ,0,1,0.,12.0,0.,12.0,0.,12.0,0.,12.0
1980-11-16 03:34:39.700 ,0,0,0.,12.0,0.,12.0,0.,12.0,0.,12.0
1980-11-16 03:34:51.700 ,0,0,0.,12.0,0.,12.0,0.,12.0,0.,12.0
1980-11-16 03:35:03.700 ,0,1,1.,12.0,0.,12.0,0.,12.0,0.,12.0
1980-11-16 03:35:15.700 ,0,1,0.,12.0,0.,12.0,0.,12.0,0.,12.0
1980-11-16 03:35:27.700 ,0,0,0.,12.0,0.,12.0,0.,12.0,0.,12.0
1980-11-16 03:35:39.700 ,0,0,0.,12.0,0.,12.0,0.,12.0,0.,12.0
1980-11-16 03:35:51.700 ,1,1,0.,12.0,0.,12.0,0.,12.0,0.,12.0
1980-11-16 03:36:03.700 ,1,1,0.,12.0,0.,12.0,0.,12.0,0.,12.0
1980-11-16 03:36:15.700 ,1,0,0.,12.0,0.,12.0,0.,12.0,0.,12.0
1980-11-16 03:36:27.700 ,1,0,0.,12.0,0.,12.0,0.,12.0,0.,12.0
1980-11-16 03:36:39.700 ,2,1,0.,12.0,0.,12.0,0.,12.0,0.,12.0
1980-11-16 03:36:51.700 ,2,1,0.,12.0,0.,12.0,0.,12.0,0.,12.0
1980-11-16 03:37:03.700 ,2,0,0.,12.0,0.,12.0,0.,12.0,0.,12.0
1980-11-16 03:37:15.700 ,2,0,0.,12.0,0.,12.0,0.,12.0,0.,12.0
1980-11-16 03:37:27.700 ,3,1,0.,12.0,0.,12.0,0.,12.0,0.,12.0
1980-11-16 03:37:39.700 ,3,1,0.,12.0,0.,12.0,0.,12.0,0.,12.0
1980-11-16 03:37:51.700 ,3,0,0.,12.0,0.,12.0,0.,12.0,0.,12.0
1980-11-16 03:38:03.700 ,3,0,0.,12.0,0.,12.0,0.,12.0,0.,12.0
1980-11-16 03:38:15.700 ,4,1,0.,12.0,0.,12.0,0.,12.0,0.,12.0
1980-11-16 03:38:27.700 ,4,1,0.,12.0,0.,12.0,0.,12.0,0.,12.0
1980-11-16 03:38:39.700 ,4,0,0.,12.0,0.,12.0,0.,12.0,0.,12.0
1980-11-16 03:38:51.700 ,4,0,0.,12.0,0.,12.0,0.,12.0,0.,12.0
1980-11-16 03:39:03.700 ,5,1,0.,12.0,0.,12.0,0.,12.0,0.,12.0
1980-11-16 03:39:15.700 ,5,1,0.,12.0,0.,12.0,0.,12.0,0.,12.0
1980-11-16 03:39:27.700 ,5,0,0.,12.0,0.,12.0,0.,12.0,0.,12.0
1980-11-16 03:39:39.700 ,5,0,0.,12.0,0.,12.0,0.,12.0,0.,12.0
1980-11-16 03:39:51.700 ,6,1,0.,12.0,0.,12.0,0.,12.0,0.,12.0
1980-11-16 03:40:03.700 ,6,1,0.,12.0,0.,12.0,0.,12.0,0.,12.0
1980-11-16 03:40:15.700 ,6,0,0.,12.0,0.,12.0,0.,12.0,0.,12.0
1980-11-16 03:40:27.700 ,6,0,0.,12.0,0.,12.0,0.,12.0,0.,12.0
1980-11-16 03:40:39.700 ,7,1,0.,12.0,0.,12.0,0.,12.0,0.,12.0
1980-11-16 03:40:51.700 ,7,1,0.,12.0,0.,12.0,0.,12.0,0.,12.0
1980-11-16 03:41:03.700 ,7,0,0.,12.0,0.,12.0,0.,12.0,0.,12.0
1980-11-16 03:41:15.700 ,7,0,0.,12.0,0.,12.0,0.,12.0,0.,12.0
1980-11-16 03:41:27.700 ,7,1,0.,12.0,0.,12.0,0.,12.0,0.,12.0
1980-11-16 03:41:39.700 ,7,1,0.,12.0,0.,12.0,0.,12.0,0.,12.0
1980-11-16 03:41:51.700 ,7,0,0.,12.0,0.,12.0,0.,12.0,0.,12.0
1980-11-16 03:42:03.700 ,7,0,0.,12.0,0.,12.0,0.,12.0,0.,12.0
1980-11-16 03:42:15.700 ,6,1,0.,12.0,0.,12.0,0.,12.0,0.,12.0
1980-11-16 03:42:27.700 ,6,1,0.,12.0,0.,12.0,0.,12.0,0.,12.0
1980-11-16 03:42:39.700 ,6,0,0.,12.0,0.,12.0,0.,12.0,0.,12.0
1980-11-16 03:42:51.700 ,6,0,0.,12.0,0.,12.0,0.,12.0,0.,12.0
1980-11-16 03:43:03.700 ,5,1,0.,12.0,0.,12.0,0.,12.0,0.,12.0
1980-11-16 03:43:15.700 ,5,1,0.,12.0,0.,12.0,0.,12.0,0.,12.0
1980-11-16 03:43:27.700 ,5,0,0.,12.0,0.,12.0,0.,12.0,0.,12.0
1980-11-16 03:43:39.700 ,5,0,0.,12.0,0.,12.0,0.,12.0,0.,12.0
1980-11-16 03:43:51.700 ,4,1,0.,12.0,0.,12.0,0.,12.0,0.,12.0
1980-11-16 03:44:03.700 ,4,1,0.,12.0,0.,12.0,0.,12.0,0.,12.0
1980-11-16 03:44:15.700 ,4,0,0.,12.0,0.,12.0,0.,12.0,0.,12.0
1980-11-16 03:44:27.700 ,4,0,0.,12.0,0.,12.0,0.,12.0,0.,12.0
1980-11-16 03:44:39.700 ,3,1,0.,12.0,0.,12.0,0.,12.0,0.,12.0
1980-11-16 03:44:51.700 ,3,1,0.,12.0,0.,12.0,0.,12.0,0.,12.0
1980-11-16 03:45:03.700 ,3,0,0.,12.0,0.,12.0,0.,12.0,0.,12.0
1980-11-16 03:45:15.700 ,3,0,0.,12.0,0.,12.0,0.,12.0,0.,12.0
1980-11-16 03:45:27.700 ,2,1,0.,12.0,0.,12.0,0.,12.0,0.,12.0
1980-11-16 03:45:39.700 ,2,1,0.,12.0,0.,12.0,0.,12.0,0.,12.0
1980-11-16 03:45:51.700 ,2,0,0.,12.0,0.,12.0,0.,12.0,0.,12.0
1980-11-16 03:46:03.700 ,2,0,0.,12.0,0.,12.0,0.,12.0,0.,12.0
1980-11-16 03:46:15.700 ,1,1,0.,12.0,0.,12.0,0.,12.0,0.,12.0
1980-11-16 03:46:27.700 ,1,1,0.,12.0,0.,12.0,0.,12.0,0.,12.0
1980-11-16 03:46:39.700 ,1,0,0.,12.0,0.,12.0,0.,12.0,0.,12.0
1980-11-16 03:46:51.700 ,1,0,0.,12.0,0.,12.0,0.,12.0,0.,12.0
1980-11-16 03:47:03.700 ,0,1,0.,12.0,0.,12.0,0.,12.0,0.,12.0
1980-11-16 03:47:15.700 ,0,1,0.,12.0,0.,12.0,0.,12.0,0.,12.0
1980-11-16 03:47:27.700 ,0,0,0.,12.0,0.,12.0,0.,12.0,0.,12.0
1980-11-16 03:47:39.700 ,0,0,0.,12.0,0.,12.0,0.,12.0,0.,12.0
1980-11-16 03:47:51.700 ,0,1,0.,12.0,0.,12.0,0.,12.0,0.,12.0
1980-11-16 03:48:03.700 ,0,1,0.,12.0,0.,12.0,0.,12.0,0.,12.0
1980-11-16 03:48:15.700 ,0,0,0.,12.0,0.,12.0,0.,12.0,0.,12.0
1980-11-16 03:48:27.700 ,0,0,0.,12.0,0.,12.0,0.,12.0,0.,12.0
1980-11-16 03:48:39.700 ,1,1,0.,12.0,0.,12.0,0.,12.0,0.,12.0
1980-11-16 03:48:51.700 ,1,1,0.,12.0,0.,12.0,0.,12.0,0.,12.0
1980-11-16 03:49:03.700 ,1,0,0.,12.0,0.,12.0,0.,12.0,0.,12.0
1980-11-16 03:49:15.700 ,1,0,0.,12.0,0.,12.0,0.,12.0,0.,12.0
1980-11-16 03:49:27.700 ,2,1,0.,12.0,0.,12.0,0.,12.0,0.,12.0
1980-11-16 03:49:39.700 ,2,1,0.,12.0,0.,12.0,0.,12.0,0.,12.0
1980-11-16 03:49:51.700 ,2,0,0.,12.0,0.,12.0,0.,12.0,0.,12.0
1980-11-16 03:50:03.700 ,2,0,0.,12.0,0.,12.0,0.,12.0,0.,12.0
1980-11-16 03:50:15.700 ,3,1,0.,12.0,0.,12.0,0.,12.0,0.,12.0
1980-11-16 03:50:27.700 ,3,1,0.,12.0,0.,12.0,0.,12.0,0.,12.0
1980-11-16 03:50:39.700 ,3,0,0.,12.0,0.,12.0,0.,12.0,0.,12.0
1980-11-16 03:50:51.700 ,3,0,0.,12.0,0.,12.0,0.,12.0,0.,12.0
1980-11-16 03:51:03.700 ,4,1,0.,12.0,0.,12.0,0.,12.0,0.,12.0
1980-11-16 03:51:15.700 ,4,1,0.,12.0,0.,12.0,0.,12.0,0.,12.0
1980-11-16 03:51:27.700 ,4,0,0.,12.0,0.,12.0,0.,12.0,0.,12.0
1980-11-16 03:51:39.700 ,4,0,0.,12.0,0.,12.0,0.,12.0,0.,12.0
1980-11-16 03:51:51.700 ,5,1,0.,12.0,0.,12.0,0.,12.0,0.,12.0
1980-11-16 03:52:03.700 ,5,1,0.,12.0,0.,12.0,0.,12.0,0.,12.0
1980-11-16 03:52:15.700 ,5,0,0.,12.0,0.,12.0,0.,12.0,0.,12.0
1980-11-16 03:52:27.700 ,5,0,0.,12.0,0.,12.0,0.,12.0,0.,12.0
1980-11-16 03:52:39.700 ,6,1,0.,12.0,0.,12.0,0.,12.0,0.,12.0
1980-11-16 03:52:51.700 ,6,1,0.,12.0,0.,12.0,0.,12.0,0.,12.0
1980-11-16 03:53:03.700 ,6,0,0.,12.0,0.,12.0,0.,12.0,0.,12.0
1980-11-16 03:53:15.700 ,6,0,0.,12.0,0.,12.0,0.,12.0,0.,12.0
1980-11-16 03:53:27.700 ,7,1,0.,12.0,0.,12.0,0.,12.0,0.,12.0
1980-11-16 03:53:39.700 ,7,1,0.,12.0,0.,12.0,0.,12.0,0.,12.0
1980-11-16 03:53:51.700 ,7,0,0.,12.0,0.,12.0,0.,12.0,0.,12.0
1980-11-16 03:54:03.700 ,7,0,0.,12.0,0.,12.0,0.,12.0,0.,12.0
1980-11-16 03:54:15.700 ,7,1,0.,12.0,0.,12.0,0.,12.0,0.,12.0
1980-11-16 03:54:27.700 ,7,1,0.,12.0,0.,12.0,0.,12.0,0.,12.0
1980-11-16 03:54:39.700 ,7,0,0.,12.0,0.,12.0,0.,12.0,0.,12.0
1980-11-16 03:54:51.700 ,7,0,0.,12.0,0.,12.0,0.,12.0,0.,12.0
1980-11-16 03:55:03.700 ,6,1,0.,12.0,0.,12.0,0.,12.0,0.,12.0
1980-11-16 03:55:15.700 ,6,1,0.,12.0,0.,12.0,0.,12.0,0.,12.0
1980-11-16 03:55:27.700 ,6,0,0.,12.0,0.,12.0,0.,12.0,0.,12.0
1980-11-16 03:55:39.700 ,6,0,0.,12.0,0.,12.0,0.,12.0,0.,12.0
1980-11-16 03:55:51.700 ,5,1,0.,12.0,0.,12.0,0.,12.0,0.,12.0
1980-11-16 03:56:03.700 ,5,1,0.,12.0,0.,12.0,0.,12.0,0.,12.0
1980-11-16 03:56:15.700 ,5,0,0.,12.0,0.,12.0,0.,12.0,0.,12.0
1980-11-16 03:56:27.700 ,5,0,0.,12.0,0.,12.0,0.,12.0,0.,12.0
1980-11-16 03:56:39.700 ,4,1,0.,12.0,0.,12.0,0.,12.0,0.,12.0
1980-11-16 03:56:51.700 ,4,1,0.,12.0,0.,12.0,0.,12.0,0.,12.0
1980-11-16 03:57:03.700 ,4,0,0.,12.0,0.,12.0,0.,12.0,0.,12.0
1980-11-16 03:57:15.700 ,4,0,0.,12.0,0.,12.0,0.,12.0,0.,12.0
1980-11-16 03:57:27.700 ,3,1,0.,12.0,0.,12.0,0.,12.0,0.,12.0
1980-11-16 03:57:39.700 ,3,1,0.,12.0,0.,12.0,0.,12.0,0.,12.0
1980-11-16 03:57:51.700 ,3,0,0.,12.0,0.,12.0,0.,12.0,0.,12.0
1980-11-16 03:58:03.700 ,3,0,0.,12.0,0.,12.0,0.,12.0,0.,12.0
1980-11-16 03:58:15.700 ,2,1,0.,12.0,0.,12.0,0.,12.0,0.,12.0
1980-11-16 03:58:27.700 ,2,1,0.,12.0,0.,12.0,0.,12.0,0.,12.0
1980-11-16 03:58:39.700 ,2,0,0.,12.0,0.,12.0,0.,12.0,0.,12.0
1980-11-16 03:58:51.700 ,2,0,0.,12.0,0.,12.0,0.,12.0,0.,12.0
1980-11-16 03:59:03.700 ,1,1,0.,12.0,0.,12.0,0.,12.0,0.,12.0
1980-11-16 03:59:15.700 ,1,1,0.,12.0,0.,12.0,0.,12.0,0.,12.0
1980-11-16 03:59:27.700 ,1,0,0.,12.0,0.,12.0,0.,12.0,0.,12.0
1980-11-16 03:59:39.700 ,1,0,0.,12.0,0.,12.0,0.,12.0,0.,12.0
1980-11-16 03:59:51.700 ,0,1,0.,12.0,0.,12.0,0.,12.0,0.,12.0
1980-11-16 04:00:03.700 ,0,1,0.,12.0,0.,12.0,0.,12.0,0.,12.0
1980-11-16 04:00:15.700 ,0,0,0.,12.0,0.,12.0,0.,12.0,0.,12.0
1980-11-16 04:00:27.700 ,0,0,0.,12.0,0.,12.0,0.,12.0,0.,12.0
1980-11-16 04:00:39.700 ,0,1,0.,12.0,0.,12.0,0.,12.0,0.,12.0
1980-11-16 04:00:51.700 ,0,1,0.,12.0,0.,12.0,0.,12.0,0.,12.0
1980-11-16 04:01:03.700 ,0,0,0.,12.0,0.,12.0,0.,12.0,0.,12.0
1980-11-16 04:01:15.700 ,0,0,0.,12.0,0.,12.0,0.,12.0,0.,12.0
1980-11-16 04:01:27.700 ,1,1,0.,12.0,0.,12.0,0.,12.0,0.,12.0
1980-11-16 04:01:39.700 ,1,1,0.,12.0,0.,12.0,0.,12.0,0.,12.0
1980-11-16 04:01:51.700 ,1,0,0.,12.0,0.,12.0,0.,12.0,0.,12.0
1980-11-16 04:02:03.700 ,1,0,0.,12.0,0.,12.0,0.,12.0,0.,12.0
1980-11-16 04:02:15.700 ,2,1,0.,12.0,0.,12.0,0.,12.0,0.,12.0
1980-11-16 04:02:27.700 ,2,1,0.,12.0,0.,12.0,0.,12.0,0.,12.0
1980-11-16 04:02:39.700 ,2,0,0.,12.0,0.,12.0,0.,12.0,0.,12.0
1980-11-16 04:02:51.700 ,2,0,0.,12.0,0.,12.0,0.,12.0,0.,12.0
1980-11-16 04:03:03.700 ,3,1,0.,12.0,0.,12.0,0.,12.0,0.,12.0
1980-11-16 04:03:15.700 ,3,1,0.,12.0,0.,12.0,0.,12.0,0.,12.0
1980-11-16 04:03:27.700 ,3,0,0.,12.0,0.,12.0,0.,12.0,0.,12.0
1980-11-16 04:03:39.700 ,3,0,0.,12.0,0.,12.0,0.,12.0,0.,12.0
1980-11-16 04:03:51.700 ,4,1,0.,12.0,0.,12.0,0.,12.0,0.,12.0
1980-11-16 04:04:03.700 ,4,1,0.,12.0,0.,12.0,0.,12.0,0.,12.0
1980-11-16 04:04:15.700 ,4,0,0.,12.0,0.,12.0,0.,12.0,0.,12.0
1980-11-16 04:04:27.700 ,4,0,0.,12.0,0.,12.0,0.,12.0,0.,12.0
1980-11-16 04:04:39.700 ,5,1,0.,12.0,0.,12.0,0.,12.0,0.,12.0
1980-11-16 04:04:51.700 ,5,1,0.,12.0,0.,12.0,0.,12.0,0.,12.0
1980-11-16 04:05:03.700 ,5,0,0.,12.0,0.,12.0,0.,12.0,0.,12.0
1980-11-16 04:05:15.700 ,5,0,0.,12.0,0.,12.0,0.,12.0,0.,12.0
1980-11-16 04:05:27.700 ,6,1,0.,12.0,0.,12.0,0.,12.0,0.,12.0
1980-11-16 04:05:39.700 ,6,1,0.,12.0,0.,12.0,0.,12.0,0.,12.0
1980-11-16 04:05:51.700 ,6,0,0.,12.0,0.,12.0,0.,12.0,0.,12.0
1980-11-16 04:06:03.700 ,6,0,0.,12.0,0.,12.0,0.,12.0,0.,12.0
1980-11-16 04:06:15.700 ,7,1,0.,12.0,0.,12.0,0.,12.0,0.,12.0
1980-11-16 04:06:27.700 ,7,1,0.,12.0,0.,12.0,0.,12.0,0.,12.0
1980-11-16 04:06:39.700 ,7,0,0.,12.0,0.,12.0,0.,12.0,0.,12.0
1980-11-16 04:06:51.700 ,7,0,0.,12.0,0.,12.0,0.,12.0,0.,12.0
1980-11-16 04:07:03.700 ,7,1,0.,12.0,0.,12.0,0.,12.0,0.,12.0
1980-11-16 04:07:15.700 ,7,1,0.,12.0,0.,12.0,0.,12.0,0.,12.0
1980-11-16 04:07:27.700 ,7,0,0.,12.0,0.,12.0,0.,12.0,0.,12.0
1980-11-16 04:07:39.700 ,7,0,0.,12.0,0.,12.0,0.,12.0,0.,12.0
1980-11-16 04:07:51.700 ,6,1,0.,12.0,0.,12.0,0.,12.0,0.,12.0
1980-11-16 04:08:03.700 ,6,1,0.,12.0,0.,12.0,0.,12.0,0.,12.0
1980-11-16 04:08:15.700 ,6,0,0.,12.0,0.,12.0,0.,12.0,0.,12.0
1980-11-16 04:08:27.700 ,6,0,0.,12.0,0.,12.0,0.,12.0,0.,12.0
1980-11-16 04:08:39.700 ,5,1,0.,12.0,0.,12.0,0.,12.0,0.,12.0
1980-11-16 04:08:51.700 ,5,1,0.,12.0,0.,12.0,0.,12.0,0.,12.0
1980-11-16 04:09:03.700 ,5,0,0.,12.0,0.,12.0,0.,12.0,0.,12.0
1980-11-16 04:09:15.700 ,5,0,0.,12.0,0.,12.0,0.,12.0,0.,12.0
1980-11-16 04:09:27.700 ,4,1,0.,12.0,0.,12.0,0.,12.0,0.,12.0
1980-11-16 04:09:39.700 ,4,1,0.,12.0,0.,12.0,0.,12.0,0.,12.0
1980-11-16 04:09:51.700 ,4,0,0.,12.0,0.,12.0,0.,12.0,0.,12.0
1980-11-16 04:10:03.700 ,4,0,0.,12.0,0.,12.0,0.,12.0,0.,12.0
1980-11-16 04:10:15.700 ,3,1,0.,12.0,0.,12.0,0.,12.0,0.,12.0
1980-11-16 04:10:27.700 ,3,1,0.,12.0,0.,12.0,0.,12.0,0.,12.0
1980-11-16 04:10:39.700 ,3,0,0.,12.0,0.,12.0,0.,12.0,0.,12.0
1980-11-16 04:10:51.700 ,3,0,0.,12.0,0.,12.0,0.,12.0,0.,12.0
1980-11-16 04:11:03.700 ,2,1,0.,12.0,0.,12.0,0.,12.0,0.,12.0
1980-11-16 04:11:15.700 ,2,1,0.,12.0,0.,12.0,0.,12.0,0.,12.0
1980-11-16 04:11:27.700 ,2,0,0.,12.0,0.,12.0,0.,12.0,0.,12.0
1980-11-16 04:11:39.700 ,2,0,0.,12.0,0.,12.0,0.,12.0,0.,12.0
1980-11-16 04:12:39.700 ,0,0,0.,12.0,0.,12.0,0.,12.0,0.,12.0
1980-11-16 04:12:51.700 ,0,0,0.,12.0,0.,12.0,0.,12.0,0.,12.0
1980-11-16 04:13:03.700 ,0,0,0.,12.0,0.,12.0,0.,12.0,0.,12.0
1980-11-16 04:13:15.700 ,0,0,0.,12.0,0.,12.0,0.,12.0,0.,12.0
1980-11-16 04:13:27.700 ,0,1,0.,12.0,0.,12.0,0.,12.0,0.,12.0
1980-11-16 04:13:39.700 ,0,1,0.,12.0,0.,12.0,0.,12.0,0.,12.0
1980-11-16 04:13:51.700 ,0,0,0.,12.0,0.,12.0,0.,12.0,0.,12.0
1980-11-16 04:14:03.700 ,0,0,0.,12.0,0.,12.0,0.,12.0,0.,12.0
1980-11-16 04:14:15.700 ,1,1,,0,,0,,0,,0
1980-11-16 04:14:27.700 ,1,1,0.,12.0,0.,12.0,0.,12.0,0.,12.0
1980-11-16 04:14:39.700 ,1,0,0.,12.0,0.,12.0,0.,12.0,0.,12.0
1980-11-16 04:14:51.700 ,1,0,0.,12.0,0.,12.0,0.,12.0,0.,12.0
1980-11-16 04:15:03.700 ,2,1,0.,12.0,0.,12.0,0.,12.0,0.,12.0
1980-11-16 04:15:15.700 ,2,1,0.,12.0,0.,12.0,0.,12.0,0.,12.0
1980-11-16 04:15:27.700 ,2,0,0.,12.0,0.,12.0,0.,12.0,0.,12.0
1980-11-16 04:15:39.700 ,2,0,0.,12.0,0.,12.0,0.,12.0,0.,12.0
1980-11-16 04:15:51.700 ,3,1,0.,12.0,0.,12.0,0.,12.0,0.,12.0
1980-11-16 04:16:03.700 ,3,1,0.,12.0,0.,12.0,0.,12.0,0.,12.0
1980-11-16 04:16:15.700 ,3,0,0.,12.0,0.,12.0,0.,12.0,0.,12.0
1980-11-16 04:16:27.700 ,3,0,0.,12.0,0.,12.0,0.,12.0,0.,12.0
1980-11-16 04:16:39.700 ,4,1,0.,12.0,0.,12.0,0.,12.0,0.,12.0
1980-11-16 04:16:51.700 ,4,1,0.,12.0,0.,12.0,0.,12.0,0.,12.0
1980-11-16 04:17:03.700 ,4,0,0.,12.0,0.,12.0,0.,12.0,0.,12.0
1980-11-16 04:17:15.700 ,4,0,0.,12.0,0.,12.0,0.,12.0,0.,12.0
1980-11-16 04:17:27.700 ,5,1,0.,12.0,0.,12.0,0.,12.0,0.,12.0
1980-11-16 04:17:39.700 ,5,1,0.,12.0,0.,12.0,0.,12.0,0.,12.0
1980-11-16 04:17:51.700 ,5,0,0.,12.0,0.,12.0,0.,12.0,0.,12.0
1980-11-16 04:18:03.700 ,5,0,0.,12.0,0.,12.0,0.,12.0,0.,12.0